Location: Bartshausen
(51.8454°N, 9.8167°E)
Time: 12:29:13
(UTC+00:00)

Cosmos 1809 Rocket - Pass Details

Date: 08 November 2025
Orbit: 940 x 963 km, 82.5° (Epoch: 09 December)

Event Time Altitude Azimuth Distance (km) Brightness Sun altitude
Rises 04:16:17 0° 203° (SSW) 3,611 7.3 -20.4°
Reaches altitude 10° 04:18:50 10° 208° (SSW) 2,667 6.5 -20.0°
Maximum altitude 04:24:48 56° 286° (WNW) 1,116 4.4 -19.1°
Drops below altitude 10° 04:30:49 10° 5° (N) 2,673 6.8 -18.2°
Sets 04:33:22 0° 9° (N) 3,620 7.6 -17.8°
